| time (UTC) | temp C | wind direction | speed KPH | gust KPH | rain 1hr cm | rain 24hr cm | rain mn cm | humidity % | barometer mb |
| 20260503211543 | 16 | 242 | 0.0 | 3.2 | 0.00 | 0.00 | 0.00 | 63 | 1018.1 |
| 20260503210521 | 16 | 233 | 0.0 | 0.0 | 0.00 | 0.00 | 0.00 | 64 | 1018.1 |
| 20260503203240 | 16 | 272 | 0.0 | 3.2 | 0.00 | 0.00 | 0.00 | 62 | 1017.6 |
| 20260503202212 | 17 | 83 | 0.0 | 3.2 | 0.00 | 0.00 | 0.00 | 62 | 1017.6 |
| 20260503201158 | 17 | 208 | 0.0 | 0.0 | 0.00 | 0.00 | 0.00 | 62 | 1017.6 |
| 20260503194952 | 17 | 225 | 0.0 | 3.2 | 0.00 | 0.00 | 0.00 | 62 | 1017.5 |
| 20260503194009 | 18 | 141 | 0.0 | 9.7 | 0.00 | 0.00 | 0.00 | 62 | 1017.3 |
| 20260503193004 | 18 | 142 | 0.0 | 9.7 | 0.00 | 0.00 | 0.00 | 61 | 1017.1 |
| 20260503191954 | 18 | 163 | 0.0 | 6.4 | 0.00 | 0.00 | 0.00 | 61 | 1017.1 |
| 20260503190929 | 18 | 248 | 1.6 | 9.7 | 0.00 | 0.00 | 0.00 | 60 | 1017.0 |
| 20260503185912 | 18 | 236 | 0.0 | 9.7 | 0.00 | 0.00 | 0.00 | 60 | 1016.9 |
| 20260503184856 | 18 | 204 | 0.0 | 8.0 | 0.00 | 0.00 | 0.00 | 59 | 1016.7 |
| 20260503183823 | 18 | 226 | 0.0 | 6.4 | 0.00 | 0.00 | 0.00 | 57 | 1016.7 |
| 20260503182802 | 18 | 194 | 0.0 | 8.0 | 0.00 | 0.00 | 0.00 | 56 | 1016.6 |
| 20260503180708 | 19 | 217 | 1.6 | 9.7 | 0.00 | 0.00 | 0.00 | 53 | 1016.6 |
| 20260503175723 | 20 | 238 | 1.6 | 4.8 | 0.00 | 0.00 | 0.00 | 52 | 1016.6 |
| 20260503174707 | 20 | 205 | 1.6 | 4.8 | 0.00 | 0.00 | 0.00 | 51 | 1016.6 |
| 20260503173647 | 20 | 227 | 1.6 | 6.4 | 0.00 | 0.00 | 0.00 | 50 | 1016.5 |
| 20260503172657 | 21 | 224 | 1.6 | 6.4 | 0.00 | 0.00 | 0.00 | 48 | 1016.5 |
| 20260503171650 | 21 | 221 | 1.6 | 6.4 | 0.00 | 0.00 | 0.00 | 48 | 1016.4 |
| 20260503170648 | 21 | 221 | 0.0 | 6.4 | 0.00 | 0.00 | 0.00 | 47 | 1016.4 |
| 20260503150204 | 24 | 178 | 1.6 | 9.7 | 0.00 | 0.00 | 0.00 | 36 | 1017.1 |
| 20260503140117 | 23 | 212 | 3.2 | 11.3 | 0.00 | 0.00 | 0.00 | 35 | 1017.9 |
| 20260503130849 | 23 | 218 | 1.6 | 11.3 | 0.00 | 0.00 | 0.00 | 35 | 1018.3 |
| 20260503110435 | 21 | 258 | 4.8 | 12.9 | 0.00 | 0.00 | 0.00 | 49 | 1019.1 |
| 20260503080912 | 15 | 139 | 1.6 | 8.0 | 0.00 | 0.00 | 0.00 | 61 | 1020.7 |
| 20260503071623 | 13 | 55 | 1.6 | 6.4 | 0.00 | 0.00 | 0.00 | 66 | 1021.1 |
| 20260503070601 | 13 | 72 | 0.0 | 4.8 | 0.00 | 0.00 | 0.00 | 67 | 1021.2 |
| 20260503054248 | 10 | 56 | 0.0 | 0.0 | 0.00 | 0.00 | 0.00 | 76 | 1021.0 |
| 20260503053215 | 10 | 54 | 0.0 | 0.0 | 0.00 | 0.00 | 0.00 | 77 | 1020.9 |
| 20260503052217 | 10 | 53 | 0.0 | 0.0 | 0.00 | 0.00 | 0.00 | 78 | 1020.8 |
| 20260503050011 | 9 | 51 | 0.0 | 0.0 | 0.00 | 0.00 | 0.00 | 80 | 1020.7 |
| 20260503045011 | 8 | 51 | 0.0 | 0.0 | 0.00 | 0.00 | 0.00 | 79 | 1020.7 |
| 20260503042943 | 8 | 51 | 0.0 | 0.0 | 0.00 | 0.00 | 0.00 | 79 | 1020.7 |
| 20260503042006 | 8 | 51 | 0.0 | 0.0 | 0.00 | 0.00 | 0.00 | 78 | 1020.6 |
| 20260503041031 | 8 | 51 | 0.0 | 0.0 | 0.00 | 0.00 | 0.00 | 78 | 1020.6 |
| 20260503040021 | 9 | 51 | 0.0 | 0.0 | 0.00 | 0.00 | 0.00 | 78 | 1020.5 |
| 20260503035035 | 9 | 51 | 0.0 | 0.0 | 0.00 | 0.00 | 0.00 | 76 | 1020.4 |
| 20260503032919 | 9 | 51 | 0.0 | 0.0 | 0.00 | 0.00 | 0.00 | 75 | 1020.4 |
| 20260503031917 | 9 | 51 | 0.0 | 0.0 | 0.00 | 0.00 | 0.00 | 75 | 1020.4 |
| 20260503030914 | 9 | 51 | 0.0 | 0.0 | 0.00 | 0.00 | 0.00 | 75 | 1020.4 |
| 20260503025922 | 9 | 51 | 0.0 | 0.0 | 0.00 | 0.00 | 0.00 | 75 | 1020.3 |
| 20260503024932 | 9 | 51 | 0.0 | 0.0 | 0.00 | 0.00 | 0.00 | 74 | 1020.4 |
| 20260503023931 | 9 | 51 | 0.0 | 0.0 | 0.00 | 0.00 | 0.00 | 73 | 1020.4 |
| 20260503022939 | 10 | 51 | 0.0 | 0.0 | 0.00 | 0.00 | 0.00 | 73 | 1020.4 |
| 20260503014436 | 10 | 51 | 0.0 | 0.0 | 0.00 | 0.00 | 0.00 | 71 | 1020.6 |
| 20260503013450 | 10 | 51 | 0.0 | 0.0 | 0.00 | 0.00 | 0.00 | 71 | 1020.5 |
| 20260503012510 | 10 | 51 | 0.0 | 0.0 | 0.00 | 0.00 | 0.00 | 71 | 1020.6 |
| 20260503011511 | 10 | 51 | 0.0 | 0.0 | 0.00 | 0.00 | 0.00 | 72 | 1020.6 |
| 20260503010534 | 10 | 51 | 0.0 | 0.0 | 0.00 | 0.00 | 0.00 | 72 | 1020.7 |
| 20260503005504 | 10 | 51 | 0.0 | 0.0 | 0.00 | 0.00 | 0.00 | 72 | 1020.8 |
| 20260503004522 | 10 | 51 | 0.0 | 0.0 | 0.00 | 0.00 | 0.00 | 72 | 1020.8 |
| 20260503003507 | 10 | 51 | 0.0 | 0.0 | 0.00 | 0.00 | 0.00 | 71 | 1020.9 |
| 20260503002452 | 10 | 51 | 0.0 | 0.0 | 0.00 | 0.00 | 0.00 | 70 | 1020.9 |
| 20260503001445 | 10 | 51 | 0.0 | 0.0 | 0.00 | 0.00 | 0.00 | 70 | 1020.9 |
| 20260503000450 | 11 | 51 | 0.0 | 0.0 | 0.00 | 0.00 | 0.00 | 69 | 1020.9 |
| 20260502235500 | 11 | 51 | 0.0 | 0.0 | 0.00 | 0.00 | 0.00 | 69 | 1021.1 |
| 20260502233317 | 11 | 51 | 0.0 | 0.0 | 0.00 | 0.00 | 0.00 | 67 | 1021.2 |
| 20260502232330 | 11 | 51 | 0.0 | 0.0 | 0.00 | 0.00 | 0.00 | 66 | 1021.3 |
| 20260502231333 | 11 | 51 | 0.0 | 0.0 | 0.00 | 0.00 | 0.00 | 66 | 1021.3 |
| 20260502230328 | 11 | 51 | 0.0 | 0.0 | 0.00 | 0.00 | 0.00 | 65 | 1021.4 |
| 20260502225322 | 12 | 51 | 0.0 | 0.0 | 0.00 | 0.00 | 0.00 | 64 | 1021.4 |
| 20260502224327 | 12 | 51 | 0.0 | 0.0 | 0.00 | 0.00 | 0.00 | 63 | 1021.4 |
| 20260502223258 | 12 | 51 | 0.0 | 0.0 | 0.00 | 0.00 | 0.00 | 61 | 1021.4 |
| 20260502222313 | 13 | 51 | 0.0 | 0.0 | 0.00 | 0.00 | 0.00 | 59 | 1021.2 |
| 20260502220139 | 13 | 51 | 0.0 | 0.0 | 0.00 | 0.00 | 0.00 | 57 | 1021.3 |
| 20260502215140 | 13 | 51 | 0.0 | 0.0 | 0.00 | 0.00 | 0.00 | 57 | 1021.2 |
| 20260502214138 | 13 | 51 | 0.0 | 0.0 | 0.00 | 0.00 | 0.00 | 57 | 1021.2 |
| 20260502213202 | 14 | 52 | 0.0 | 1.6 | 0.00 | 0.00 | 0.00 | 57 | 1021.1 |